Simultaneous Nadir Overpasses (SNOs) Predictions

Prediction of SNOs between METOP-A and TERRA Satellite Orbit:

Table of predicted SNOs for the next 14.0 days since TLE Epoch: 6/30/2018
Index Date (METOP-A) Time (METOP-A) Lat,Lon (METOP-A) SZA (METOP-A ) Date (TERRA) Time (TERRA) Lat,Lon (TERRA) SZA (TERRA ) Distance(km) Time Diff (sec)
1 07/01/2018 20:41:46 -81.42, 98.81 118.64 07/01/2018 20:42:43 -81.42, 98.87 118.60 1.03 57
2 07/01/2018 21:32:26 81.42, -93.44 61.42 07/01/2018 21:32:09 81.42, -93.42 61.42 0.36 17
3 07/04/2018 16:16:02 -81.42, 165.63 118.38 07/04/2018 16:16:58 -81.43, 165.47 118.37 2.82 56
4 07/04/2018 17:06:43 81.42, -27.04 61.63 07/04/2018 17:06:25 81.41, -27.24 61.59 3.39 18
5 07/07/2018 11:50:20 -81.42,-128.35 118.16 07/07/2018 11:51:14 -81.41,-128.38 118.15 0.76 54
6 07/07/2018 12:41:00 81.42, 39.33 61.88 07/07/2018 12:40:40 81.41, 39.28 61.86 1.07 20
7 07/10/2018 07:24:36 -81.42, -61.96 117.85 07/10/2018 07:25:28 -81.41, -61.90 117.82 1.13 52
8 07/10/2018 08:15:16 81.42, 105.68 62.19 07/10/2018 08:14:54 81.41, 105.74 62.18 1.03 22
9 07/13/2018 02:58:53 -81.42, 4.41 117.49 07/13/2018 02:59:43 -81.41, 4.52 117.46 1.88 50




NCC Satellite Simultaneous Nadir Overpasses (SNOs) Prediction Service
